FW1785 Weather Reports


Display with metric or nautical units.
time (UTC)temp
F
wind
direction
speed
MPH
gust
MPH
rain 1hr
in
rain 24hr
in
rain mn
in
humidity
%
barometer
mb
20260906111521 93 256 4.0 7.0 0.00 0.00 0.00 45 1033.1
20260906110016 93 225 3.0 8.0 0.00 0.00 0.00 42 1033.1
20260906104514 92 26 3.0 11.0 0.00 0.00 0.00 55 1033.1
20260906103009 91 317 3.0 7.0 0.00 0.00 0.00 61 1033.1
20260906101608 91 337 2.0 4.0 0.00 0.00 0.00 62 1033.2
20260906100006 92 9 1.0 5.0 0.00 0.00 0.00 62 1033.2
20260906094506 91 330 1.0 7.0 0.00 0.00 0.00 65 1033.2
20260906093001 91 28 3.0 9.0 0.00 0.00 0.00 64 1033.4
20260906091559 90 336 3.0 5.0 0.00 0.00 0.00 65 1033.5
20260906090115 90 30 0.0 10.0 0.00 0.00 0.00 65 1033.6
20260906084556 90 32 3.0 9.0 0.00 0.00 0.00 63 1033.6
20260906083054 90 57 1.0 5.0 0.00 0.00 0.00 58 1033.8
20260906081553 90 36 1.0 5.0 0.00 0.00 0.00 57 1033.8
20260906080047 90 360 1.0 3.0 0.00 0.00 0.00 54 1034.0
20260906074541 90 40 1.0 5.0 0.00 0.00 0.00 49 1033.9
20260906073037 90 39 0.0 4.0 0.00 0.00 0.00 47 1033.9
20260906071536 90 42 2.0 5.0 0.00 0.00 0.00 49 1033.8
20260906070031 89 59 0.0 2.0 0.00 0.00 0.00 51 1034.0
20260906064533 88 57 2.0 5.0 0.00 0.00 0.00 52 1033.9
20260906063021 87 116 0.0 2.0 0.00 0.00 0.00 61 1033.8
20260906061516 85 118 2.0 4.0 0.00 0.00 0.00 63 1033.5
20260906060011 82 169 0.0 2.0 0.00 0.00 0.00 75 1033.6
20260906054507 81 169 1.0 3.0 0.00 0.00 0.00 77 1033.6
20260906053003 79 178 0.0 0.0 0.00 0.00 0.00 82 1033.7
20260906051559 77 179 0.0 0.0 0.00 0.00 0.00 83 1033.6
20260906050114 73 179 0.0 0.0 0.00 0.00 0.00 87 1033.6
20260906044554 71 179 0.0 0.0 0.00 0.00 0.00 90 1033.7
20260906043055 69 179 0.0 0.0 0.00 0.00 0.00 91 1033.7
20260906041541 68 179 0.0 1.0 0.00 0.00 0.00 91 1033.6
20260906040043 67 179 0.0 1.0 0.00 0.00 0.00 92 1033.7
20260906034541 67 179 0.0 3.0 0.00 0.00 0.00 90 1033.7
20260906033031 66 179 0.0 1.0 0.00 0.00 0.00 90 1033.6
20260906031534 66 179 0.0 2.0 0.00 0.00 0.00 87 1033.5
20260906030028 67 180 0.0 2.0 0.00 0.00 0.00 87 1033.6
20260906024528 67 180 0.0 2.0 0.00 0.00 0.00 86 1033.5
20260906023027 67 180 0.0 2.0 0.00 0.00 0.00 86 1033.6
20260906021526 67 180 1.0 3.0 0.00 0.00 0.00 84 1033.5
20260906020028 67 180 0.0 2.0 0.00 0.00 0.00 84 1033.4
20260906014532 68 180 2.0 4.0 0.00 0.00 0.00 83 1033.4
20260906013026 68 175 2.0 4.0 0.00 0.00 0.00 83 1033.5
20260906011523 67 188 3.0 5.0 0.00 0.00 0.00 84 1033.4
20260906010022 67 192 1.0 5.0 0.00 0.00 0.00 84 1033.5
20260906004523 67 192 2.0 3.0 0.00 0.00 0.00 84 1033.6
20260906003021 67 190 2.0 5.0 0.00 0.00 0.00 83 1033.6
20260906001520 67 171 0.0 3.0 0.00 0.00 0.00 82 1033.5
20260906000019 67 170 2.0 4.0 0.00 0.00 0.00 82 1033.6
20260905234518 67 181 0.0 4.0 0.00 0.00 0.00 81 1033.8
20260905233025 67 180 1.0 3.0 0.00 0.00 0.00 81 1033.7
20260905231517 67 156 1.0 3.0 0.00 0.00 0.00 82 1033.6
20260905230016 67 182 2.0 4.0 0.00 0.00 0.00 81 1033.6
20260905224514 67 178 1.0 4.0 0.00 0.00 0.00 80 1033.7
20260905223012 68 173 1.0 3.0 0.00 0.00 0.00 80 1033.7
20260905221511 68 173 0.0 3.0 0.00 0.00 0.00 80 1033.6
20260905220008 68 171 3.0 6.0 0.00 0.00 0.00 81 1033.6
20260905214507 68 173 0.0 1.0 0.00 0.00 0.00 82 1033.8
20260905213006 69 173 1.0 6.0 0.00 0.00 0.00 81 1033.9
20260905211502 69 191 3.0 7.0 0.00 0.00 0.00 81 1034.0
20260905210100 69 171 4.0 7.0 0.00 0.00 0.00 80 1034.1
20260905204559 70 155 0.0 3.0 0.00 0.00 0.00 79 1034.3
20260905203102 70 175 2.0 4.0 0.00 0.00 0.00 77 1034.3
20260905201605 71 153 0.0 1.0 0.00 0.00 0.00 76 1034.4
20260905200100 72 153 0.0 2.0 0.00 0.00 0.00 75 1034.5
20260905194559 73 153 0.0 3.0 0.00 0.00 0.00 76 1034.4
20260905193056 72 175 2.0 5.0 0.00 0.00 0.00 74 1034.3
20260905191607 72 211 0.0 2.0 0.00 0.00 0.00 77 1034.3
20260905190055 73 152 1.0 5.0 0.00 0.00 0.00 87 1034.0
20260905184607 73 176 0.0 4.0 0.00 0.00 0.00 89 1034.3
20260905183054 73 182 0.0 3.0 0.00 0.00 0.00 88 1034.4
20260905181553 74 189 1.0 4.0 0.00 0.00 0.00 86 1034.3
20260905180053 76 248 0.0 1.0 0.00 0.00 0.00 86 1034.4
20260905174557 76 248 0.0 0.0 0.00 0.00 0.00 86 1034.4
20260905173100 77 248 0.0 0.0 0.00 0.00 0.00 85 1034.4
20260905171548 77 248 0.0 0.0 0.00 0.00 0.00 85 1034.0
20260905170049 78 248 0.0 1.0 0.00 0.00 0.00 84 1033.8
20260905164547 78 248 0.0 2.0 0.00 0.00 0.00 83 1033.7
20260905163052 79 244 0.0 1.0 0.00 0.00 0.00 82 1033.4
20260905161545 79 244 0.0 0.0 0.00 0.00 0.00 81 1033.5
20260905160052 80 243 0.0 1.0 0.00 0.00 0.00 81 1033.6
20260905154549 80 244 2.0 4.0 0.00 0.00 0.00 80 1033.5
20260905153043 81 254 1.0 4.0 0.00 0.00 0.00 80 1033.3
20260905151542 81 241 3.0 7.0 0.00 0.00 0.00 79 1033.3
20260905150042 82 252 5.0 11.0 0.00 0.00 0.00 77 1033.3
20260905144547 83 239 2.0 5.0 0.00 0.00 0.00 75 1033.1
20260905143039 84 42 0.0 3.0 0.00 0.00 0.00 74 1033.2
20260905141601 85 22 1.0 9.0 0.00 0.00 0.00 72 1033.1
20260905140048 85 332 2.0 8.0 0.00 0.00 0.00 70 1032.9
20260905134539 87 36 2.0 3.0 0.00 0.00 0.00 65 1032.8
20260905133050 88 44 2.0 4.0 0.00 0.00 0.00 65 1033.0
20260905131551 88 52 0.0 6.0 0.00 0.00 0.00 65 1033.1
20260905130035 88 40 3.0 9.0 0.00 0.00 0.00 66 1033.3
20260905124534 88 67 5.0 8.0 0.00 0.00 0.00 66 1033.1
20260905123033 88 30 1.0 9.0 0.00 0.00 0.00 68 1033.3
20260905121532 88 57 0.0 4.0 0.00 0.00 0.00 69 1033.2
20260905120031 88 360 4.0 8.0 0.00 0.00 0.00 67 1033.2
20260905114554 88 54 0.0 3.0 0.00 0.00 0.00 68 1033.3
20260905113029 87 327 1.0 6.0 0.00 0.00 0.00 67 1033.3